Regional Weather Roundup
Issued by NWS Wakefield, VA

Home | Current Version | Previous Version | Graphics & Text | Print | Product List | Glossary On
Versions: 1 2 3 4 5 6 7 8 9 10 11 12 13 14 15 16 17 18 19 20 21 22 23 24 25 26 27
000
ASUS41 KAKQ 260315
RWRAKQ

REGIONAL WEATHER ROUNDUP
NATIONAL WEATHER SERVICE WAKEFIELD VA
1100 PM EDT SAT MAR 25 2017

Note: "fair" indicates few or no clouds below 12,000 feet with no
significant weather and/or obstructions to visibility. * = Denotes
station may not report precipitation (e.g., rain,snow,etc.),
thunder or fog.

VAZ042-051-052>054-056-260400-
NORTHERN VIRGINIA

CITY           SKY/WX    TMP DP  RH WIND       PRES   REMARKS
WASH NATIONAL  CLOUDY    65  52  62 S8        30.18S
DULLES         CLOUDY    67  50  54 SE5       30.17S
FORT BELVOIR   CLOUDY    64  52  64 SE3       30.17S
QUANTICO       MOCLDY    63  52  67 SW8       30.19S
FREDERICKSBRG* PTCLDY    69  53  57 S8        30.17F
STAFFORD*      CLOUDY    67  51  56 CALM      30.22S
WARRENTON      CLOUDY    70  47  43 S3        30.17F
CULPEPER*      CLOUDY    70  52  52 SW3       30.18S
MANASSAS*        N/A     66  51  58 S5        30.18S
LEESBURG*      CLOUDY    70  54  56 SE7       30.18S
WINCHESTER     CLOUDY    61  52  72 CALM      30.16F
FRONT ROYAL*   CLOUDY    66  52  59 CALM      30.15F
LURAY*         CLOUDY    61  54  77 SW3       30.17S
$$

VAZ048-049-060>072-079>083-260400-
CENTRAL AND SOUTH CENTRAL VIRGINIA

CITY           SKY/WX    TMP DP  RH WIND       PRES   REMARKS
RICHMOND       CLOUDY    62  52  69 S7        30.20F
CHESTERFIELD*  FAIR      61  39  44 S5        30.22S
PETERSBURG*    MOCLDY    54  51  87 CALM      30.21F
HANOVER        CLOUDY    64  49  57 S5        30.21F
TAPPAHANNOCK*  CLOUDY    66  38  36 S3        30.21S
QUINTON*       FAIR      63  54  72 E6        30.20F
CHARLOTTSVILLE CLOUDY    67  50  54 S7        30.17F
GORDONSVILLE*  CLOUDY    65  52  62 CALM      30.18S
ORANGE*        CLOUDY    64  50  59 CALM      30.20S
LOUISA*        MOCLDY    70  54  56 S3        30.18F
BUMPASS*       FAIR      66  51  59 S7        30.19F
FARMVILLE*     CLOUDY    64  52  67 CALM      30.18F
CREWE*         FAIR      60  52  75 CALM      30.20S
FORT PICKETT*  FAIR      62  46  57 SE6       30.20F
CHASE CITY*    FAIR      60  49  66 CALM      30.20F
CLARKSVILLE*   FAIR      61  50  67 S3        30.20F
SOUTH HILL*    MOCLDY    59  52  77 S5        30.27S
LAWRENCEVILLE* FAIR      62  50  66 CALM      30.21S
EMPORIA*       CLOUDY    61  50  67 SE6       30.23S
$$

VAZ088>098-260400-
SOUTHEAST VIRGINIA

CITY           SKY/WX    TMP DP  RH WIND       PRES   REMARKS
NORFOLK        MOCLDY    63  51  65 S8        30.22S
VIRGINIA BEACH CLOUDY    63  50  62 S8        30.23S
NORFOLK NAVAL  CLOUDY    66  51  58 S7        30.23F
WEST POINT*    CLOUDY    63  50  63 CALM      30.22S
SALUDA*        FAIR      66  53  63 S5        30.20F
NEWPORT NEWS   MOCLDY    60  52  74 S3        30.22S
LANGLEY AFB    CLOUDY    63  53  69 S9        30.21F
FORT EUSTIS    CLOUDY    61  51  71 S5        30.19F
WILLIAMSBURG*  CLOUDY    63  54  72 CALM      30.22S
HR EXEC AP*    FAIR      63  52  67 SW7       30.21F
FRANKLIN*      CLOUDY    61  51  68 S7        30.24R
US460-WAKEFLD  CLOUDY    58  52  80 CALM      30.22S
$$

VAZ020-022-025-037-045-260400-
WEST CENTRAL AND SOUTHWEST VIRGINIA

CITY           SKY/WX    TMP DP  RH WIND       PRES   REMARKS
STAUNTON*      CLOUDY    60  49  66 CALM      30.20S
WAYNESBORO*    MOCLDY    62  51  66 CALM      30.19S
HOT SPRINGS VA CLOUDY    54  43  66 SE8       30.24S
LYNCHBURG      CLOUDY    56  48  74 CALM      30.21S
DANVILLE       CLOUDY    57  49  74 CALM      30.20F
SOUTH BOSTON*  FAIR      62  48  60 CALM      30.20S
MARTINSVILLE   CLOUDY    53  46  77 CALM      30.22F
ROANOKE        MOCLDY    65  47  52 SE3       30.21S
BLACKSBURG     CLOUDY    59  48  65 CALM      30.24F
DUBLIN*        PTCLDY    58  47  68 CALM      30.22S
MARION*        CLEAR     59  46  62 CALM      30.23S
HILLSVILLE*    CLEAR     56  47  71 CALM      30.21F
RICHLANDS*     FAIR      60  45  56 S3        30.18S
WISE*          CLEAR     61  43  51 S8        30.17F
ABINGDON*      CLEAR     61  46  59 CALM      30.18S
$$

MDZ021>025-VAZ099-100-260400-
SOUTHERN MARYLAND AND THE DELMARVA PENINSULA

CITY           SKY/WX    TMP DP  RH WIND       PRES   REMARKS
PATUXENT RIVER PTCLDY    50  50 100 SE3       30.19S
BAY BRIDGE APT CLOUDY    55  46  71 E14G21    30.23R
LEONARDTOWN    CLOUDY    61  52  72 CALM      30.21S
DOVER          PTCLDY    48  48 100 E10       30.28R
GEORGETOWN     PTCLDY    48  43  82 E16       30.27S
EASTON         CLOUDY    54  44  68 E12G18    30.29R
CAMBRIDGE      CLEAR     55  46  71 E7G13     30.23R
SALISBURY      MOCLDY    51  47  86 NE10      30.23R
OCEAN CITY     PTCLDY    48  44  86 N7        30.24S
WALLOPS ISLAND CLOUDY    51  49  92 SE3       30.22F
ACCOMACK*      PTCLDY    60  51  71 S7        30.21F
$$

NCZ012>017-030>032-260400-
NORTH CENTRAL AND EASTERN NORTH CAROLINA

CITY           SKY/WX    TMP DP  RH WIND       PRES   REMARKS
ROANOKE RAPIDS FAIR      63  52  67 S7        30.23S
RALEIGH        MOCLDY    65  50  58 S10       30.23S
ELIZABETH CITY CLOUDY    62  52  69 S9        30.25S
AHOSKIE*       NOT AVBL
EDENTON*       CLOUDY    62  53  72 CALM      30.27S
CURRITUCK*     CLOUDY    63  51  64 S6        30.25F
KILL DEVIL HLS NOT AVBL
MANTEO         CLOUDY    57  52  82 SW5       30.27F
CAPE HATTERAS  CLOUDY    64  55  72 W5        30.28S
TARBORO*       NOT AVBL
GOLDSBORO      PTCLDY    63  55  73 S5        30.24S
WASHINGTON     PTCLDY    61  53  75 CALM      30.27S
GREENVILLE     PTCLDY    63  54  72 S8        30.26F
NEW BERN       CLOUDY    59  55  87 CALM      30.28S
WILMINGTON     PTCLDY    61  56  83 S6        30.26F
$$

VAZ048-260400-
ELSEWHERE

CITY           SKY/WX    TMP DP  RH WIND       PRES   REMARKS
HARRISBURG PA  PTCLDY    54  44  69 E6        30.27R
BALTIMORE      MOCLDY    56  50  80 E16       30.24R
ANNAPOLIS      CLOUDY    57  47  69 E9        30.25R
ANDREWS AFB    CLOUDY    65  51  60 E16       30.19R
PHILADELPHIA   PTCLDY    45  40  82 E13       30.34R
HENDERSON NC   PTCLDY    60  47  63 S6        30.22S
GREENSBORO     MOCLDY    62  49  62 S6        30.20S
ROCKY MOUNT    MOCLDY    63  53  70 S6        30.24S
$$

VAZ100-260400-
MARINE

STATION/POSITION TIME  TEMP    WIND        PRES    WAVE   SWELL
                       AIR SEA DIR/SP/G            HT/PER HT/PER
                 (UTC) (F)     (DEG/KT/KT) (MB)    (FT/S) (FT/S)
CAPE MAY NJ      0248   45 44   70/ 11/ 21 1024.8R
LEWES DE         0248      47   80/ 16/ 19 1025.3R
OCEAN-CITY-INLET 0248   47 44   30/  6/ 10 1024.5R
WACHAPREAGUE VA  0248   56 58  220/  5/  7 1023.0F
THOMAS POINT MD  0300   54 46   70/ 15/ 16   N/A
GOOSES REEF MD   0300   53 46  120/  6/  6 1023.5    0
COVE POINT MD    0248   52     170/  6/  7 1023.1R
SOLOMONS ISLAND  0248           90/  3/  3   N/A
BISHOPS HEAD MD  0248   53 54  150/  4/  6 1023.0S
PINEY POINT MD   0248          120/  4/  5   N/A
POTOMAC MD       0300   55 47  170/  6/  6 1021.5    0
CAMBRIDGE MD     0248   53 46   60/ 12/ 15 1022.9R
LEWISETTA VA     0248   67 48  240/  5/  6 1022.0F
RAPPAHANNOCK LGT 0248          180/ 15/ 15 1023.4F
STINGRAY PT      0250   53     210/  4/  4 1022.7F
YORK RVR RNG VA  0248   61     190/ 12/ 12 1022.4F
YORKTOWN VA      0248   66 51  190/  5/  7 1022.7F
JAMESTOWN VA     0300   60 52  130/  2/  2   N/A     0
DOMINION TERM VA 0248   61     160/  5/  6 1023.4F
KIPTOPEKE VA     0248      48  170/  5/  8   N/A
CHES BAY BRIDGE  0248   65 47  200/ 11/ 12 1023.4F
CAPE HENRY VA    0248   65     190/  7/ 10   N/A
WILLOUBY STN VA  0248   66     190/ 12/ 13 1024.3S
S CRANEY ISL VA  0248   63     200/  7/  9 1023.4R
CAPE HENRY BUOY  0242      49                N/A     2/ 9
CAPE CHARLES BUO 0251      48                N/A     2/10
OFFSHORE WE BUOY 0251      49                N/A     2/ 4
64NM E OF VA BCH 0250   54 49  220/ 12/ 12 1024.4F   3/ 4   2/ 5
DUCK PIER NC     0248   62 49  200/ 11/ 14 1024.0F
44100 DUCK FRF   0205      49                N/A     2/ 9
44056 DUCK FRF   0230      50                N/A     1/ 9
OREGON INLET NC  0248          210/  9/ 11   N/A
HATTERAS NC      0248   63 58  240/  5/  6 1025.1S
DIAMOND SHLS NC  0250   69 76  190/ 14/ 17 1025.5R   3/ 5   2/ 8
CAPE LOOKOUT NC  0300   67     190/ 10/ 10 1025.0S
$$




USA.gov is the U.S. government's official web portal to all federal, state and local government web resources and services.